This is the latest recevied weather packets stored in our database for station/object DM3FAM-13. If no packets are shown the sender has not sent any weather packets the latest 10 day(s).
| Time | Temp. | Humidity | Pressure | Rain* | Wind** | Luminosity | Snow |
|---|---|---|---|---|---|---|---|
| 1777806031 | 22.78° C | 38% | 1015 hPa | 0 mm | - | 282 W/m² | - |
| 1777804831 | 21.67° C | 37% | 1015.2 hPa | 0 mm | - | 228 W/m² | - |
| 1777804230 | 21.67° C | 39% | 1015.3 hPa | 0 mm | - | 227 W/m² | - |
| 1777803030 | 21.11° C | 35% | 1015.4 hPa | 0 mm | - | 169 W/m² | - |
| 1777801831 | 21.67° C | 38% | 1015.6 hPa | 0 mm | - | 207 W/m² | - |
| 1777801231 | 21.67° C | 38% | 1015.7 hPa | 0 mm | - | 246 W/m² | - |
| 1777800631 | 21.67° C | 37% | 1015.7 hPa | 0 mm | - | 243 W/m² | - |
| 1777800031 | 21.67° C | 38% | 1015.9 hPa | 0 mm | - | 247 W/m² | - |
| 1777799430 | 21.67° C | 36% | 1015.9 hPa | 0 mm | - | 206 W/m² | - |
| 1777798830 | 21.67° C | 37% | 1015.9 hPa | 0 mm | - | 226 W/m² | - |
| 1777798230 | 21.11° C | 39% | 1016 hPa | 0 mm | - | 226 W/m² | - |
| 1777797630 | 20.56° C | 39% | 1016.1 hPa | 0 mm | - | 163 W/m² | - |
| 1777797030 | 20.56° C | 41% | 1016.1 hPa | 0 mm | - | 131 W/m² | - |
| 1777796430 | 20° C | 43% | 1016.4 hPa | 0 mm | - | 157 W/m² | - |
| 1777795829 | 20° C | 46% | 1016.4 hPa | 0 mm | - | 113 W/m² | - |
| 1777795231 | 19.44° C | 45% | 1016.5 hPa | 0 mm | - | 105 W/m² | - |
| 1777794631 | 19.44° C | 47% | 1016.5 hPa | 0 mm | - | 87 W/m² | - |
| 1777794030 | 18.89° C | 49% | 1016.5 hPa | 0 mm | - | 73 W/m² | - |
| 1777793430 | 17.78° C | 62% | 1016.5 hPa | 0 mm | - | 76 W/m² | - |
| 1777792830 | 16.67° C | 66% | 1016.5 hPa | 0 mm | - | 81 W/m² | - |
| 1777792230 | 16.67° C | 68% | 1016.6 hPa | 0 mm | - | 66 W/m² | - |
| 1777791631 | 15.56° C | 70% | 1016.8 hPa | 0 mm | - | 76 W/m² | - |
| 1777791031 | 15.56° C | 70% | 1016.8 hPa | 0 mm | - | 99 W/m² | - |
| 1777790431 | 15° C | 73% | 1016.8 hPa | 0 mm | - | 100 W/m² | - |
| 1777789831 | 14.44° C | 77% | 1016.7 hPa | 0 mm | - | 89 W/m² | - |
* Rain latest hour (hover to see other rain measurements)
** Current wind speed in m/s (hover to see current wind gust speed)